, FL

(GMT )
Crestview

Weather History for KEGI - March, 2013

Change the Weather History Date:

Wednesday, March 6, 2013

  Actual Average Record
Temperature  
Mean Temperature 48 °F -  
Max Temperature 58 °F - - ()
Min Temperature 38 °F - - ()
Degree Days  
Heating Degree Days 17    
Moisture  
Dew Point 28 °F    
Average Humidity 53    
Maximum Humidity 85    
Minimum Humidity 27    
Precipitation  
Precipitation 0.00 in - - ()
Sea Level Pressure  
Sea Level Pressure 30.19 in    
Wind  
Wind Speed 11 mph (NNW)    
Max Wind Speed 21 mph    
Max Gust Speed 29 mph    
Visibility 10 miles    
Events      
Averages and records for this station are not official NWS values.
T = Trace of Precipitation, MM = Missing Value Source: NWS Daily Summary

Daily Weather History Graph

Daily Weather History Graph

Search for Another Location

Airport or City:

Trip Planner

Search our weather history database for the weather conditions in past years. The results will help you decide how hot, cold, wet, or windy it might be!

Date:

Astronomy

Mar. 06, 2013 Rise Set
Actual Time 6:06 AM CST 5:48 PM CST
Civil Twilight 5:42 AM CST 6:12 PM CST
Nautical Twilight 5:14 AM CST 6:40 PM CST
Astronomical Twilight 4:46 AM CST 7:08 PM CST
Moon 1:58 AM CST (3/6) 12:46 PM CST (3/6)
Length of Visible Light 12h 30m
Length of Day
11h 42m
Waning Crescent, 29% of the Moon is Illuminated
Mar 6
Waning Crescent
Mar 11
New
Mar 19
First Quarter
Mar 27
Full
Apr 2
Last Quarter

Hourly Weather History & Observations

Time (CST) Temp. Windchill Dew Point Humidity Pressure Visibility Wind Dir Wind Speed Gust Speed Precip Events Conditions
12:58 AM 42.6 °F 39.0 °F 37.9 °F 83% 30.13 in 10.0 mi WNW 5.8 mph - N/A   Clear
1:58 AM 42.3 °F 37.3 °F 37.9 °F 85% 30.13 in 10.0 mi NW 8.1 mph - N/A   Clear
2:58 AM 42.6 °F 37.2 °F 36.0 °F 77% 30.12 in 10.0 mi NW 9.2 mph - N/A   Clear
3:58 AM 41.4 °F 36.8 °F 32.7 °F 71% 30.14 in 10.0 mi NW 6.9 mph - N/A   Clear
4:58 AM 39.9 °F 34.5 °F 32.0 °F 73% 30.17 in 10.0 mi NNW 8.1 mph - N/A   Clear
5:58 AM 38.8 °F 32.6 °F 30.7 °F 73% 30.19 in 10.0 mi NW 9.2 mph - N/A   Clear
6:58 AM 39.2 °F 32.5 °F 29.7 °F 69% 30.22 in 10.0 mi NNW 10.4 mph - N/A   Clear
7:58 AM 42.3 °F 34.4 °F 27.3 °F 56% 30.23 in 10.0 mi NNW 16.1 mph - N/A   Clear
8:57 AM 46.0 °F 38.5 °F 23.7 °F 42% 30.22 in 10.0 mi NNW 19.6 mph 25.3 mph N/A   Clear
9:56 AM 48.4 °F - 23.5 °F 38% 30.22 in 10.0 mi NW 19.6 mph 27.6 mph N/A   Clear
10:55 AM 51.4 °F - 22.5 °F 32% 30.22 in 10.0 mi NNW 18.4 mph 24.2 mph N/A   Clear
11:58 AM 54.5 °F - 22.1 °F 28% 30.19 in 10.0 mi NNW 18.4 mph 20.7 mph N/A   Clear
12:55 PM 56.3 °F - 23.2 °F 28% 30.17 in 10.0 mi NW 15.0 mph 24.2 mph N/A   Clear
1:55 PM 57.9 °F - 23.9 °F 27% 30.15 in 10.0 mi NNW 20.7 mph 28.8 mph N/A   Clear
2:55 PM 58.5 °F - 25.2 °F 28% 30.14 in 10.0 mi NW 13.8 mph 23.0 mph N/A   Clear
3:55 PM 57.4 °F - 25.3 °F 29% 30.15 in 10.0 mi NNW 16.1 mph 24.2 mph N/A   Clear
4:55 PM 55.2 °F - 26.8 °F 34% 30.16 in 10.0 mi North 13.8 mph - N/A   Clear
5:55 PM 51.3 °F - 28.0 °F 41% 30.19 in 10.0 mi North 9.2 mph - N/A   Partly Cloudy
6:55 PM 47.3 °F - 29.8 °F 51% 30.22 in 10.0 mi North 8.1 mph - N/A   Clear
7:55 PM 45.5 °F 41.3 °F 29.5 °F 54% 30.23 in 10.0 mi NNW 8.1 mph - N/A   Clear
8:55 PM 43.7 °F 39.7 °F 29.1 °F 57% 30.24 in 10.0 mi North 6.9 mph - N/A   Clear
9:55 PM 43.0 °F 38.2 °F 29.3 °F 59% 30.25 in 10.0 mi NNW 8.1 mph - N/A   Clear
10:55 PM 42.3 °F 37.3 °F 28.6 °F 58% 30.26 in 10.0 mi NNW 8.1 mph - N/A   Clear
11:55 PM 39.2 °F 35.0 °F 28.9 °F 67% 30.26 in 10.0 mi NNW 5.8 mph - N/A   Clear